This demonstration page uses our WeatherBlox Daily Observations layout. Learn more.

39.92423, -83.80882

Hourly Observations for August 6, 2017

Temp ( °F °C ) Dew Point ( °F °C ) Humidity (%) Winds ( mph kmh ) Pressure ( in mb ) Visibility ( mi km ) Precip ( " mm )
12:56 am 00:56 Clear 58 14.4 57 13.9 97 97 Calm 30.09 1019 10 16.0934 0 0
1:56 am 01:56 Clear 56 13.3 55 12.8 97 97 E 3 6 30.07 1018 10 16.0934 0 0
2:56 am 02:56 Clear 59 15 58 14.4 96 96 Calm 30.09 1019 10 16.0934 0 0
3:56 am 03:56 Clear 59 15 58 14.4 96 96 ESE 3 6 30.07 1018 10 16.0934 0 0
4:56 am 04:56 Clear 60 15.6 58 14.4 93 93 Calm 30.08 1019 10 16.0934 0 0
5:56 am 05:56 Clear 60 15.6 59 15 96 96 Calm 30.09 1019 10 16.0934 0 0
6:56 am 06:56 Sunny 62 16.7 58 14.4 86 86 S 7 11 30.09 1019 10 16.0934 0 0
7:56 am 07:56 Sunny 62 16.7 60 15.6 93 93 Calm 30.11 1020 10 16.0934 0 0.0254
8:56 am 08:56 Sunny 65 18.3 61 16.1 87 87 SSE 5 7 30.11 1020 10 16.0934 0 0
9:56 am 09:56 Sunny 66 18.9 60 15.6 81 81 SSE 3 6 30.11 1020 10 16.0934 0 0
10:27 am 10:27 Hazy 66 19 61 16 83 83 Calm 30.09 1019 1 1.60934 0 0
10:35 am 10:35 Sunny 66 19 61 16 83 83 Calm 30.09 1019 10 16.0934 0 0
10:56 am 10:56 Sunny 68 20 61 16.1 78 78 Calm 30.11 1020 10 16.0934 0 0
11:56 am 11:56 Sunny 69 20.6 60 15.6 73 73 SSE 5 7 30.11 1020 10 16.0934 0 0
12:56 pm 12:56 Partly Cloudy with Light Rain 69 20.6 61 16.1 76 76 S 6 9 30.11 1020 10 16.0934 0 0.0254
1:56 pm 13:56 Sunny 69 20.6 61 16.1 76 76 SSE 6 9 30.11 1020 10 16.0934 0 0.0254
2:56 pm 14:56 Sunny 70 21.1 58 14.4 66 66 S 7 11 30.09 1019 10 16.0934 0 0
3:56 pm 15:56 Sunny 70 21.1 61 16.1 73 73 SE 6 9 30.09 1019 10 16.0934 0 0
4:56 pm 16:56 Sunny 70 21.1 59 15 68 68 SE 6 9 30.09 1019 10 16.0934 0 0
5:56 pm 17:56 Sunny 69 20.6 60 15.6 73 73 SSE 5 7 30.07 1018 10 16.0934 0 0
6:56 pm 18:56 Sunny 68 20 61 16.1 78 78 SSE 5 7 30.06 1018 10 16.0934 0 0
7:56 pm 19:56 Sunny 68 20 62 16.7 81 81 ESE 5 7 30.04 1017 10 16.0934 0 0
8:56 pm 20:56 Clear 64 17.8 61 16.1 90 90 SE 3 6 30.05 1018 10 16.0934 0 0
9:56 pm 21:56 Clear 62 16.7 60 15.6 93 93 E 5 7 30.06 1018 10 16.0934 0 0
10:56 pm 22:56 Clear 63 17.2 61 16.1 93 93 ESE 5 7 30.06 1018 10 16.0934 0 0
11:56 pm 23:56 Clear 61 16.1 60 15.6 97 97 E 5 7 30.05 1018 10 16.0934 0 0

Powered by AerisWeather